Lynchburg, VA

6:40 PM EST on November 21, 2019 (GMT -0500)
Lynchburg Regional-Glenn

Weather History for KLYH - September, 2019

Change the Weather History Date:

Tuesday, September 24, 2019

  Actual Average Record
Temperature  
Mean Temperature 71 °F 64 °F  
Max Temperature 85 °F 75 °F 94 °F (1933)
Min Temperature 56 °F 52 °F 37 °F (1967)
Degree Days  
Heating Degree Days 0 3  
Month to date heating degree days 5 30  
Since 1 July heating degree days 5 33  
Cooling Degree Days 6 2  
Month to date cooling degree days 239 107  
Year to date cooling degree days 1454 1005  
Growing Degree Days 22 (Base 50)    
Moisture  
Dew Point 53 °F    
Average Humidity 61    
Maximum Humidity 97    
Minimum Humidity 25    
Precipitation  
Precipitation 0.00 in 0.13 in 1.50 in (1947)
Month to date precipitation 0.06 3.14  
Year to date precipitation 27.64 31.07  
Snow  
Snow 0.00 in - - ()
Month to date snowfall 0.0  
Since 1 July snowfall 0.0  
Since 1 September snowfall 0.0  
Snow Depth 0.00 in    
Sea Level Pressure  
Sea Level Pressure 29.90 in    
Wind  
Wind Speed 3 mph (North)    
Max Wind Speed 10 mph    
Max Gust Speed 16 mph    
Visibility 10 miles    
Events      
T = Trace of Precipitation, MM = Missing Value Source: NWS Daily Summary

Daily Weather History Graph

Daily Weather History Graph

Search for Another Location

Airport or City:

Astronomy

Sep. 24, 2019 Rise Set
Actual Time 7:06 AM EDT 7:11 PM EDT
Civil Twilight 6:40 AM EDT 7:36 PM EDT
Nautical Twilight 6:09 AM EDT 8:07 PM EDT
Astronomical Twilight 5:38 AM EDT 8:38 PM EDT
Moon 1:57 AM EDT (9/24) 4:48 PM EDT (9/24)
Length of Visible Light 12h 56m
Length of Day
12h 04m
Waning Crescent, 23% of the Moon is Illuminated
Sep 24
Waning Crescent
Sep 28
New
Oct 5
First Quarter
Oct 13
Full
Oct 21
Last Quarter

Hourly Weather History & Observations

Time (EDT) Temp. Dew Point Humidity Pressure Visibility Wind Dir Wind Speed Gust Speed Precip Events Conditions
12:54 AM 71.1 °F 63.0 °F 75% 29.88 in 10.0 mi Calm Calm - N/A   Mostly Cloudy
1:54 AM 71.1 °F 62.1 °F 73% 29.88 in 10.0 mi Variable 3.5 mph - N/A   Clear
2:54 AM 66.9 °F 61.0 °F 81% 29.88 in 10.0 mi Calm Calm - N/A   Clear
3:54 AM 66.0 °F 61.0 °F 84% 29.88 in 10.0 mi Calm Calm - N/A   Clear
4:54 AM 66.9 °F 61.0 °F 81% 29.88 in 10.0 mi Calm Calm - N/A   Clear
5:54 AM 61.0 °F 59.0 °F 93% 29.90 in 10.0 mi Calm Calm - N/A   Clear
6:54 AM 62.1 °F 60.1 °F 93% 29.91 in 10.0 mi Calm Calm - N/A   Clear
7:54 AM 64.0 °F 60.1 °F 87% 29.92 in 10.0 mi Calm Calm - N/A   Clear
8:54 AM 73.0 °F 60.1 °F 64% 29.94 in 10.0 mi NW 4.6 mph - N/A   Clear
9:54 AM 75.0 °F 55.9 °F 51% 29.94 in 10.0 mi North 8.1 mph - N/A   Clear
10:54 AM 77.0 °F 53.1 °F 43% 29.95 in 10.0 mi Variable 6.9 mph - N/A   Clear
11:54 AM 78.1 °F 52.0 °F 40% 29.94 in 10.0 mi NNE 5.8 mph - N/A   Clear
12:54 PM 80.1 °F 52.0 °F 38% 29.91 in 10.0 mi East 4.6 mph - N/A   Clear
1:54 PM 82.0 °F 51.1 °F 34% 29.89 in 10.0 mi NE 8.1 mph - N/A   Clear
2:54 PM 84.0 °F 46.0 °F 26% 29.87 in 10.0 mi NE 9.2 mph - N/A   Clear
3:54 PM 84.0 °F 45.0 °F 25% 29.86 in 10.0 mi North 4.6 mph - N/A   Clear
4:54 PM 82.9 °F 44.1 °F 25% 29.85 in 10.0 mi Variable 6.9 mph - N/A   Clear
5:54 PM 81.0 °F 42.1 °F 25% 29.86 in 10.0 mi North 6.9 mph - N/A   Clear
6:54 PM 73.0 °F 46.0 °F 38% 29.88 in 10.0 mi North 3.5 mph - N/A   Clear
7:54 PM 68.0 °F 46.9 °F 47% 29.89 in 10.0 mi Calm Calm - N/A   Clear
8:54 PM 64.0 °F 48.0 °F 56% 29.91 in 10.0 mi NW 3.5 mph - N/A   Clear
9:54 PM 64.9 °F 50.0 °F 58% 29.94 in 10.0 mi Calm Calm - N/A   Clear
10:54 PM 63.0 °F 51.1 °F 65% 29.94 in 10.0 mi Calm Calm - N/A   Clear
11:54 PM 62.1 °F 50.0 °F 65% 29.94 in 10.0 mi Calm Calm - N/A   Clear